Regional Weather Roundup
Issued by NWS

Home | Current Version | Previous Version | Graphics & Text | Print | Product List | Glossary On
Versions: 1 2 3 4 5 6 7 8 9 10 11 12 13 14 15 16 17 18 19 20 21 22 23 24 25 26 27 28 29 30 31 32 33 34 35 36 37 38 39 40 41 42 43 44 45 46 47 48 49 50
673
ASUS43 KLSX 070907
RWRMO

WEATHER SUMMARY FOR MISSOURI
NATIONAL WEATHER SERVICE SPRINGFIELD MO
300 AM CST SUN FEB 07 2016

NOTE: "FAIR" INDICATES FEW OR NO CLOUDS BELOW 12,000 FEET WITH NO
       SIGNIFICANT WEATHER AND/OR OBSTRUCTIONS TO VISIBILITY.
       CURRENT SKY AND/OR WEATHER CONDITIONS ARE NOT AVAILABLE FOR
       CHILLICOTHE AND FARMINGTON.

MOZ001>031-035>038-043-044-053-054-071000-
...NORTHERN AND WESTERN MISSOURI...

CITY           SKY/WX    TMP DP  RH WIND       PRES   REMARKS
KANSAS CTY INT CLOUDY    38  27  64 S16       29.99F WCI  29
KANSAS C DTWN  CLOUDY    44  26  49 SW21G31   30.01F
LEE`S SUMMIT   CLEAR     38  27  64 SW16      30.02F WCI  29
ST JOSEPH      CLOUDY    37  27  67 SW8       30.00R
CHILLICOTHE      N/A     38  29  70 SW10      30.00F
KIRKSVILLE     PTCLDY    38  27  64 SW12      29.98F

$$
MOZ066>068-077>081-088>096-101>105-071000-
...SOUTHWEST MISSOURI...

CITY           SKY/WX    TMP DP  RH WIND       PRES   REMARKS
SPRINGFIELD    PTCLDY    34  26  72 S9        30.14F WCI  27
JOPLIN         CLOUDY    40  27  59 SW12      30.15F

$$
MOZ032>034-039>042-045>050-055>058-069>072-071000-
...CENTRAL MISSOURI...

CITY           SKY/WX    TMP DP  RH WIND       PRES   REMARKS
COLUMBIA       CLOUDY    37  28  70 S12       30.07F WCI  29
JEFFERSON CITY CLOUDY    39  29  67 S8        30.09F
ROLLA          MOCLDY    36  27  69 SW9       30.11F WCI  29
SEDALIA        CLEAR     40  27  59 SW15      30.07F
WHITEMAN AFB   CLEAR     37  28  71 SW16      30.04F WCI  27
WARRENSBURG    CLEAR     37  28  70 S12       30.04F WCI  30
OSAGE BEACH    PTCLDY    36  25  64 S6        30.11F

$$
MOZ051-052-059>065-071000-
...EAST CENTRAL MISSOURI...

CITY           SKY/WX    TMP DP  RH WIND       PRES   REMARKS
ST LOUIS INTL  CLOUDY    43  21  41 SW10      30.13F
SPIRIT OF STL  PTCLDY    34  26  72 CALM      30.12F
ST CHARLES     CLOUDY    37  27  67 S10       30.12F WCI  30

$$
MOZ072>076-082>087-097>100-106>115-071000-
...SOUTH CENTRAL AND SOUTHEAST MISSOURI...

CITY           SKY/WX    TMP DP  RH WIND       PRES   REMARKS
CAPE GIRARDEAU CLEAR     29  22  75 CALM      30.21F
FARMINGTON     CLOUDY    36  18  48 SW6       30.17F
POPLAR BLUFF   CLOUDY    35  23  61 SW3       30.21F
WEST PLAINS    PTCLDY    34  17  50 SW3       30.20R

$$



USA.gov is the U.S. government's official web portal to all federal, state and local government web resources and services.